Time,TemperatureF,DewpointF,PressureIn,WindDirection,WindDirectionDegrees,WindSpeedMPH,WindSpeedGustMPH,Humidity,HourlyPrecipIn,Conditions,Clouds,dailyrainin,SoftwareType,DateUTC
2013-05-15 00:00:00,69.8,57.1,29.94,SSE,159,2.0,3.0,64,0.00,,,0.00,Wunderground v.1.15,2013-05-15 05:00:00,
2013-05-15 00:10:00,69.3,57.5,29.93,SSE,159,4.0,5.0,66,0.00,,,0.00,Wunderground v.1.15,2013-05-15 05:10:00,
2013-05-15 00:15:00,69.2,57.8,29.93,SSE,159,4.0,5.0,67,0.00,,,0.00,Wunderground v.1.15,2013-05-15 05:15:00,
2013-05-15 00:20:00,69.1,57.7,29.94,SSE,159,4.0,4.0,67,0.00,,,0.00,Wunderground v.1.15,2013-05-15 05:20:00,
2013-05-15 00:25:00,69.0,58.0,29.94,SSE,159,3.0,4.0,68,0.00,,,0.00,Wunderground v.1.15,2013-05-15 05:25:00,
2013-05-15 00:30:00,69.0,58.0,29.93,SSE,159,3.0,5.0,68,0.00,,,0.00,Wunderground v.1.15,2013-05-15 05:30:00,
2013-05-15 00:40:00,68.8,58.2,29.93,SSE,159,4.0,6.0,69,0.00,,,0.00,Wunderground v.1.15,2013-05-15 05:40:00,
2013-05-15 00:45:00,68.8,58.6,29.92,SSE,159,5.0,6.0,70,0.00,,,0.00,Wunderground v.1.15,2013-05-15 05:45:00,
2013-05-15 00:50:00,69.0,59.2,29.92,SSE,157,5.0,7.0,71,0.00,,,0.00,Wunderground v.1.15,2013-05-15 05:50:00,
2013-05-15 00:55:00,69.3,59.5,29.92,SSE,158,6.0,8.0,71,0.00,,,0.00,Wunderground v.1.15,2013-05-15 05:55:00,
2013-05-15 01:00:00,69.7,59.9,29.92,SSE,155,6.0,9.0,71,0.00,,,0.00,Wunderground v.1.15,2013-05-15 06:00:00,
2013-05-15 01:10:00,70.3,60.8,29.92,South,178,7.0,7.0,72,0.00,,,0.00,Wunderground v.1.15,2013-05-15 06:10:00,
2013-05-15 01:15:00,70.4,60.9,29.92,SSE,166,6.0,7.0,72,0.00,,,0.00,Wunderground v.1.15,2013-05-15 06:15:00,
2013-05-15 01:20:00,70.5,61.0,29.93,SSE,163,5.0,5.0,72,0.00,,,0.00,Wunderground v.1.15,2013-05-15 06:20:00,
2013-05-15 01:25:00,70.5,61.4,29.92,SSE,162,6.0,11.0,73,0.00,,,0.00,Wunderground v.1.15,2013-05-15 06:25:00,
2013-05-15 01:30:00,70.5,61.4,29.92,SSE,167,6.0,6.0,73,0.00,,,0.00,Wunderground v.1.15,2013-05-15 06:30:00,
2013-05-15 01:35:00,70.5,61.4,29.92,South,173,5.0,6.0,73,0.00,,,0.00,Wunderground v.1.15,2013-05-15 06:35:00,
2013-05-15 01:45:00,70.6,61.9,29.92,SSE,161,6.0,6.0,74,0.00,,,0.00,Wunderground v.1.15,2013-05-15 06:45:00,
2013-05-15 01:50:00,70.6,62.3,29.92,SSE,161,5.0,7.0,75,0.00,,,0.00,Wunderground v.1.15,2013-05-15 06:50:00,
2013-05-15 01:55:00,70.6,62.3,29.92,South,171,5.0,7.0,75,0.00,,,0.00,Wunderground v.1.15,2013-05-15 06:55:00,
2013-05-15 02:00:00,70.7,62.8,29.92,SSE,164,5.0,7.0,76,0.00,,,0.00,Wunderground v.1.15,2013-05-15 07:00:00,
2013-05-15 02:10:00,70.8,63.2,29.91,South,172,5.0,5.0,77,0.00,,,0.00,Wunderground v.1.15,2013-05-15 07:10:00,
2013-05-15 02:15:00,71.1,63.5,29.91,South,190,5.0,5.0,77,0.00,,,0.00,Wunderground v.1.15,2013-05-15 07:15:00,
2013-05-15 02:20:00,71.3,63.7,29.92,SSW,198,6.0,6.0,77,0.00,,,0.00,Wunderground v.1.15,2013-05-15 07:20:00,
2013-05-15 02:25:00,71.4,63.8,29.91,SSE,153,6.0,10.0,77,0.00,,,0.00,Wunderground v.1.15,2013-05-15 07:25:00,
2013-05-15 02:30:00,71.6,64.4,29.91,South,173,7.0,13.0,78,0.00,,,0.00,Wunderground v.1.15,2013-05-15 07:30:00,
2013-05-15 02:35:00,71.7,64.5,29.91,South,169,8.0,13.0,78,0.00,,,0.00,Wunderground v.1.15,2013-05-15 07:35:00,
2013-05-15 02:40:00,71.7,64.5,29.91,SSE,163,8.0,8.0,78,0.00,,,0.00,Wunderground v.1.15,2013-05-15 07:40:00,
2013-05-15 02:45:00,71.7,64.5,29.91,South,175,7.0,8.0,78,0.00,,,0.00,Wunderground v.1.15,2013-05-15 07:45:00,
2013-05-15 02:50:00,71.6,64.4,29.91,SSW,202,7.0,7.0,78,0.00,,,0.00,Wunderground v.1.15,2013-05-15 07:50:00,
2013-05-15 03:00:00,71.5,64.6,29.91,South,169,6.0,6.0,79,0.00,,,0.00,Wunderground v.1.15,2013-05-15 08:00:00,
2013-05-15 03:10:00,71.4,64.9,29.90,SSE,163,7.0,7.0,80,0.00,,,0.00,Wunderground v.1.15,2013-05-15 08:10:00,
2013-05-15 03:15:00,71.3,64.8,29.90,South,186,6.0,7.0,80,0.00,,,0.00,Wunderground v.1.15,2013-05-15 08:15:00,
2013-05-15 06:55:00,70.0,64.6,29.89,South,169,5.0,5.0,83,0.00,,,0.00,Wunderground v.1.15,2013-05-15 11:55:00,
2013-05-15 07:00:00,70.0,64.6,29.90,South,174,5.0,5.0,83,0.00,,,0.00,Wunderground v.1.15,2013-05-15 12:00:00,
2013-05-15 07:10:00,70.1,64.7,29.89,SSW,192,4.0,4.0,83,0.00,,,0.00,Wunderground v.1.15,2013-05-15 12:10:00,
2013-05-15 07:15:00,70.1,64.7,29.90,South,182,5.0,5.0,83,0.00,,,0.00,Wunderground v.1.15,2013-05-15 12:15:00,
2013-05-15 07:20:00,70.1,64.7,29.90,SSE,151,5.0,5.0,83,0.00,,,0.00,Wunderground v.1.15,2013-05-15 12:20:00,
2013-05-15 07:25:00,70.0,64.6,29.89,SSE,157,4.0,5.0,83,0.00,,,0.00,Wunderground v.1.15,2013-05-15 12:25:00,
2013-05-15 07:35:00,70.0,64.6,29.90,SSE,153,3.0,3.0,83,0.00,,,0.00,Wunderground v.1.15,2013-05-15 12:35:00,
2013-05-15 07:40:00,70.0,64.6,29.90,SSE,156,3.0,3.0,83,0.00,,,0.00,Wunderground v.1.15,2013-05-15 12:40:00,
2013-05-15 07:45:00,70.0,64.6,29.90,SSE,161,3.0,6.0,83,0.00,,,0.00,Wunderground v.1.15,2013-05-15 12:45:00,
2013-05-15 07:55:00,69.9,64.5,29.91,SSE,165,4.0,8.0,83,0.00,,,0.00,Wunderground v.1.15,2013-05-15 12:55:00,
2013-05-15 08:00:00,69.8,64.7,29.91,SSE,149,4.0,4.0,84,0.00,,,0.00,Wunderground v.1.15,2013-05-15 13:00:00,
2013-05-15 08:10:00,69.7,64.6,29.91,SSE,162,5.0,6.0,84,0.00,,,0.00,Wunderground v.1.15,2013-05-15 13:10:00,
2013-05-15 08:15:00,69.5,64.8,29.91,SSE,159,5.0,6.0,85,0.00,,,0.00,Wunderground v.1.15,2013-05-15 13:15:00,
2013-05-15 08:20:00,69.4,64.7,29.92,SSE,167,4.0,4.0,85,0.00,,,0.00,Wunderground v.1.15,2013-05-15 13:20:00,
2013-05-15 08:25:00,69.3,64.6,29.92,SSE,157,3.0,7.0,85,0.00,,,0.00,Wunderground v.1.15,2013-05-15 13:25:00,
2013-05-15 08:30:00,69.2,64.5,29.92,SSE,155,4.0,5.0,85,0.00,,,0.00,Wunderground v.1.15,2013-05-15 13:30:00,
2013-05-15 08:35:00,69.1,64.4,29.92,South,176,4.0,5.0,85,0.00,,,0.00,Wunderground v.1.15,2013-05-15 13:35:00,
2013-05-15 08:40:00,69.0,64.6,29.92,SSE,150,4.0,7.0,86,0.00,,,0.00,Wunderground v.1.15,2013-05-15 13:40:00,
2013-05-15 08:50:00,68.7,64.3,29.92,SSE,161,6.0,6.0,86,0.00,,,0.00,Wunderground v.1.15,2013-05-15 13:50:00,
2013-05-15 08:55:00,68.6,64.2,29.92,South,172,5.0,6.0,86,0.00,,,0.00,Wunderground v.1.15,2013-05-15 13:55:00,
2013-05-15 09:00:00,68.5,64.1,29.92,South,170,5.0,5.0,86,0.00,,,0.00,Wunderground v.1.15,2013-05-15 14:00:00,
2013-05-15 09:10:00,68.4,64.0,29.92,SE,146,5.0,7.0,86,0.00,,,0.00,Wunderground v.1.15,2013-05-15 14:10:00,
2013-05-15 09:15:00,68.3,63.9,29.92,SSE,157,5.0,7.0,86,0.00,,,0.00,Wunderground v.1.15,2013-05-15 14:15:00,
2013-05-15 09:20:00,68.2,63.9,29.92,SSE,168,5.0,5.0,86,0.00,,,0.00,Wunderground v.1.15,2013-05-15 14:20:00,
2013-05-15 09:30:00,68.2,63.9,29.92,SSE,161,4.0,6.0,86,0.00,,,0.00,Wunderground v.1.15,2013-05-15 14:30:00,
2013-05-15 09:40:00,68.3,63.9,29.92,SSE,161,6.0,7.0,86,0.00,,,0.00,Wunderground v.1.15,2013-05-15 14:40:00,
2013-05-15 09:45:00,68.5,64.1,29.91,SSE,156,6.0,7.0,86,0.00,,,0.00,Wunderground v.1.15,2013-05-15 14:45:00,
2013-05-15 09:50:00,68.7,64.7,29.91,SSE,158,5.0,6.0,87,0.00,,,0.00,Wunderground v.1.15,2013-05-15 14:50:00,
2013-05-15 09:55:00,68.9,64.5,29.91,SSE,153,4.0,6.0,86,0.00,,,0.00,Wunderground v.1.15,2013-05-15 14:55:00,
2013-05-15 10:00:00,69.0,64.6,29.92,South,185,5.0,5.0,86,0.00,,,0.00,Wunderground v.1.15,2013-05-15 15:00:00,
2013-05-15 11:15:00,74.8,66.7,29.90,SSW,201,7.0,9.0,76,0.00,,,0.00,Wunderground v.1.15,2013-05-15 16:15:00,
2013-05-15 11:25:00,76.0,66.7,29.90,SSW,195,9.0,16.0,73,0.00,,,0.00,Wunderground v.1.15,2013-05-15 16:25:00,
2013-05-15 11:30:00,76.4,67.1,29.89,South,169,9.0,13.0,73,0.00,,,0.00,Wunderground v.1.15,2013-05-15 16:30:00,
2013-05-15 11:35:00,77.0,66.5,29.88,SSW,200,9.0,15.0,70,0.00,,,0.00,Wunderground v.1.15,2013-05-15 16:35:00,
2013-05-15 11:50:00,77.0,66.0,29.89,SSW,200,10.0,10.0,69,0.00,,,0.00,Wunderground v.1.15,2013-05-15 16:50:00,
2013-05-15 11:55:00,76.7,66.2,29.89,SSE,157,10.0,10.0,70,0.00,,,0.00,Wunderground v.1.15,2013-05-15 16:55:00,
2013-05-15 12:00:00,77.0,66.0,29.88,South,175,8.0,14.0,69,0.00,,,0.00,Wunderground v.1.15,2013-05-15 17:00:00,
2013-05-15 12:10:00,76.8,66.3,29.88,SSE,153,10.0,10.0,70,0.00,,,0.00,Wunderground v.1.15,2013-05-15 17:10:00,
2013-05-15 12:15:00,77.0,66.5,29.88,South,169,9.0,10.0,70,0.00,,,0.00,Wunderground v.1.15,2013-05-15 17:15:00,
2013-05-15 12:20:00,77.2,66.7,29.87,SSW,192,8.0,8.0,70,0.00,,,0.00,Wunderground v.1.15,2013-05-15 17:20:00,
2013-05-15 12:25:00,77.2,66.2,29.87,South,171,9.0,11.0,69,0.00,,,0.00,Wunderground v.1.15,2013-05-15 17:25:00,
2013-05-15 12:30:00,77.8,66.4,29.87,South,180,10.0,10.0,68,0.00,,,0.00,Wunderground v.1.15,2013-05-15 17:30:00,
2013-05-15 12:40:00,77.7,66.7,29.87,South,180,10.0,10.0,69,0.00,,,0.00,Wunderground v.1.15,2013-05-15 17:40:00,
2013-05-15 12:45:00,77.5,66.5,29.87,SSE,148,9.0,15.0,69,0.00,,,0.00,Wunderground v.1.15,2013-05-15 17:45:00,
2013-05-15 12:50:00,77.3,65.9,29.87,South,188,9.0,9.0,68,0.00,,,0.00,Wunderground v.1.15,2013-05-15 17:50:00,
2013-05-15 12:55:00,76.8,65.9,29.87,SSW,202,9.0,11.0,69,0.00,,,0.00,Wunderground v.1.15,2013-05-15 17:55:00,
2013-05-15 13:00:00,76.6,66.1,29.87,SSW,195,9.0,12.0,70,0.00,,,0.00,Wunderground v.1.15,2013-05-15 18:00:00,
2013-05-15 13:10:00,77.4,66.8,29.86,South,190,8.0,11.0,70,0.00,,,0.00,Wunderground v.1.15,2013-05-15 18:10:00,
2013-05-15 13:15:00,77.9,66.9,29.85,SSW,194,8.0,12.0,69,0.00,,,0.00,Wunderground v.1.15,2013-05-15 18:15:00,
2013-05-15 13:20:00,78.4,67.4,29.85,SSE,164,9.0,9.0,69,0.00,,,0.00,Wunderground v.1.15,2013-05-15 18:20:00,
2013-05-15 13:25:00,79.1,68.1,29.85,SSE,165,8.0,9.0,69,0.00,,,0.00,Wunderground v.1.15,2013-05-15 18:25:00,
2013-05-15 13:35:00,78.2,67.2,29.85,South,172,10.0,10.0,69,0.00,,,0.00,Wunderground v.1.15,2013-05-15 18:35:00,
2013-05-15 13:40:00,77.5,66.9,29.85,SSE,150,8.0,10.0,70,0.00,,,0.00,Wunderground v.1.15,2013-05-15 18:40:00,
2013-05-15 13:45:00,77.1,67.0,29.84,SE,144,8.0,10.0,71,0.00,,,0.00,Wunderground v.1.15,2013-05-15 18:45:00,
2013-05-15 13:50:00,76.7,66.6,29.84,SSE,163,8.0,8.0,71,0.00,,,0.00,Wunderground v.1.15,2013-05-15 18:50:00,
2013-05-15 13:55:00,76.4,66.7,29.84,SSE,167,8.0,8.0,72,0.00,,,0.00,Wunderground v.1.15,2013-05-15 18:55:00,
2013-05-15 14:05:00,76.3,66.6,29.83,South,169,7.0,10.0,72,0.00,,,0.00,Wunderground v.1.15,2013-05-15 19:05:00,
2013-05-15 14:10:00,75.6,66.3,29.83,South,177,10.0,10.0,73,0.00,,,0.00,Wunderground v.1.15,2013-05-15 19:10:00,
2013-05-15 14:15:00,75.5,66.6,29.83,SSE,158,10.0,10.0,74,0.00,,,0.00,Wunderground v.1.15,2013-05-15 19:15:00,
2013-05-15 14:20:00,75.5,67.0,29.82,SSE,164,9.0,9.0,75,0.00,,,0.00,Wunderground v.1.15,2013-05-15 19:20:00,
2013-05-15 14:30:00,75.4,67.3,29.82,SSE,155,11.0,14.0,76,0.00,,,0.00,Wunderground v.1.15,2013-05-15 19:30:00,
2013-05-15 14:35:00,75.5,67.4,29.82,SSE,149,13.0,14.0,76,0.00,,,0.00,Wunderground v.1.15,2013-05-15 19:35:00,
2013-05-15 14:40:00,75.2,67.9,29.82,SSE,162,12.0,12.0,78,0.00,,,0.00,Wunderground v.1.15,2013-05-15 19:40:00,
2013-05-15 14:50:00,73.1,67.3,29.82,SE,127,10.0,10.0,82,0.00,,,0.00,Wunderground v.1.15,2013-05-15 19:50:00,
2013-05-15 14:55:00,73.0,67.9,29.81,SSE,153,9.0,11.0,84,0.00,,,0.00,Wunderground v.1.15,2013-05-15 19:55:00,
2013-05-15 15:00:00,73.8,68.3,29.81,SSE,155,10.0,10.0,83,0.00,,,0.00,Wunderground v.1.15,2013-05-15 20:00:00,
2013-05-15 15:05:00,74.1,68.3,29.80,SSE,157,10.0,16.0,82,0.00,,,0.00,Wunderground v.1.15,2013-05-15 20:05:00,
2013-05-15 15:10:00,74.1,67.9,29.81,SSE,153,11.0,11.0,81,0.00,,,0.00,Wunderground v.1.15,2013-05-15 20:10:00,
2013-05-15 15:20:00,73.4,67.6,29.80,SSE,160,10.0,10.0,82,0.00,,,0.00,Wunderground v.1.15,2013-05-15 20:20:00,
2013-05-15 15:25:00,73.5,67.3,29.80,SSE,158,10.0,10.0,81,0.00,,,0.00,Wunderground v.1.15,2013-05-15 20:25:00,
2013-05-15 15:30:00,73.2,67.4,29.80,SSW,200,10.0,12.0,82,0.00,,,0.00,Wunderground v.1.15,2013-05-15 20:30:00,
2013-05-15 15:35:00,73.7,67.5,29.80,SSE,155,10.0,12.0,81,0.00,,,0.00,Wunderground v.1.15,2013-05-15 20:35:00,
2013-05-15 15:45:00,73.2,67.0,29.79,SSE,168,10.0,10.0,81,0.00,,,0.00,Wunderground v.1.15,2013-05-15 20:45:00,
2013-05-15 15:50:00,72.3,67.2,29.79,SSE,166,10.0,10.0,84,0.00,,,0.01,Wunderground v.1.15,2013-05-15 20:50:00,
2013-05-15 15:55:00,71.4,66.7,29.78,SE,144,10.0,10.0,85,0.00,,,0.01,Wunderground v.1.15,2013-05-15 20:55:00,
2013-05-15 16:00:00,71.0,66.6,29.79,SSE,150,11.0,11.0,86,0.00,,,0.01,Wunderground v.1.15,2013-05-15 21:00:00,
2013-05-15 16:10:00,71.1,66.7,29.78,SSE,168,10.0,13.0,86,0.00,,,0.01,Wunderground v.1.15,2013-05-15 21:10:00,
2013-05-15 16:15:00,71.2,66.8,29.78,SSE,159,10.0,13.0,86,0.00,,,0.01,Wunderground v.1.15,2013-05-15 21:15:00,
2013-05-15 16:20:00,71.3,66.9,29.78,SSE,163,10.0,10.0,86,0.00,,,0.01,Wunderground v.1.15,2013-05-15 21:20:00,
2013-05-15 16:25:00,71.2,66.8,29.78,SSE,161,8.0,10.0,86,0.00,,,0.01,Wunderground v.1.15,2013-05-15 21:25:00,
2013-05-15 16:30:00,70.6,66.2,29.78,SSE,158,8.0,8.0,86,0.00,,,0.01,Wunderground v.1.15,2013-05-15 21:30:00,
2013-05-15 16:35:00,70.3,65.9,29.78,SSE,167,9.0,9.0,86,0.00,,,0.01,Wunderground v.1.15,2013-05-15 21:35:00,
2013-05-15 16:40:00,70.0,65.6,29.78,SSE,165,8.0,8.0,86,0.00,,,0.01,Wunderground v.1.15,2013-05-15 21:40:00,
2013-05-15 16:50:00,69.6,65.2,29.77,SSE,148,11.0,11.0,86,0.00,,,0.01,Wunderground v.1.15,2013-05-15 21:50:00,
2013-05-15 17:00:00,69.4,65.0,29.76,SSE,153,10.0,12.0,86,0.00,,,0.01,Wunderground v.1.15,2013-05-15 22:00:00,
2013-05-15 17:10:00,68.8,64.4,29.76,SE,146,11.0,12.0,86,0.00,,,0.02,Wunderground v.1.15,2013-05-15 22:10:00,
2013-05-15 17:20:00,68.4,63.7,29.75,SE,137,11.0,11.0,85,0.00,,,0.02,Wunderground v.1.15,2013-05-15 22:20:00,
2013-05-15 17:25:00,68.4,63.7,29.75,SSE,159,13.0,13.0,85,0.00,,,0.02,Wunderground v.1.15,2013-05-15 22:25:00,
2013-05-15 17:35:00,68.5,63.8,29.74,SE,142,12.0,14.0,85,0.00,,,0.02,Wunderground v.1.15,2013-05-15 22:35:00,
2013-05-15 17:40:00,68.6,63.9,29.72,SE,126,12.0,12.0,85,0.00,,,0.02,Wunderground v.1.15,2013-05-15 22:40:00,
2013-05-15 17:45:00,68.6,63.9,29.72,SE,138,13.0,16.0,85,0.00,,,0.02,Wunderground v.1.15,2013-05-15 22:45:00,
2013-05-15 17:55:00,68.5,63.8,29.73,SSE,148,13.0,27.0,85,0.00,,,0.02,Wunderground v.1.15,2013-05-15 22:55:00,
2013-05-15 18:05:00,68.5,63.8,29.73,SE,144,11.0,13.0,85,0.00,,,0.02,Wunderground v.1.15,2013-05-15 23:05:00,
2013-05-15 18:10:00,68.6,63.9,29.74,SE,140,10.0,10.0,85,0.00,,,0.02,Wunderground v.1.15,2013-05-15 23:10:00,
2013-05-15 18:15:00,68.6,63.9,29.74,SSE,154,11.0,11.0,85,0.00,,,0.02,Wunderground v.1.15,2013-05-15 23:15:00,
2013-05-15 18:20:00,68.6,63.9,29.74,SE,134,11.0,11.0,85,0.00,,,0.02,Wunderground v.1.15,2013-05-15 23:20:00,
2013-05-15 18:30:00,68.7,64.0,29.73,SE,137,10.0,10.0,85,0.00,,,0.02,Wunderground v.1.15,2013-05-15 23:30:00,
2013-05-15 18:40:00,68.9,64.2,29.72,SSE,154,12.0,14.0,85,0.00,,,0.02,Wunderground v.1.15,2013-05-15 23:40:00,
2013-05-15 18:45:00,68.9,64.2,29.71,SE,144,13.0,14.0,85,0.00,,,0.02,Wunderground v.1.15,2013-05-15 23:45:00,
2013-05-15 18:50:00,68.9,64.2,29.71,ESE,119,12.0,17.0,85,0.00,,,0.02,Wunderground v.1.15,2013-05-15 23:50:00,
2013-05-15 19:00:00,68.8,64.1,29.71,SSE,154,11.0,11.0,85,0.00,,,0.02,Wunderground v.1.15,2013-05-16 00:00:00,
2013-05-15 19:15:00,69.0,64.6,29.71,SSE,148,11.0,11.0,86,0.00,,,0.02,Wunderground v.1.15,2013-05-16 00:15:00,
2013-05-15 19:25:00,69.0,64.6,29.72,SSE,165,10.0,12.0,86,0.00,,,0.02,Wunderground v.1.15,2013-05-16 00:25:00,
2013-05-15 19:30:00,69.0,64.6,29.73,SE,135,9.0,9.0,86,0.00,,,0.02,Wunderground v.1.15,2013-05-16 00:30:00,
2013-05-15 19:40:00,68.9,64.5,29.72,SSE,147,11.0,13.0,86,0.00,,,0.02,Wunderground v.1.15,2013-05-16 00:40:00,
2013-05-15 19:45:00,68.9,64.5,29.72,SE,140,12.0,18.0,86,0.00,,,0.02,Wunderground v.1.15,2013-05-16 00:45:00,
2013-05-15 19:50:00,68.9,64.5,29.71,SE,140,11.0,14.0,86,0.00,,,0.02,Wunderground v.1.15,2013-05-16 00:50:00,
2013-05-15 19:55:00,68.9,64.5,29.71,SSE,158,12.0,14.0,86,0.00,,,0.02,Wunderground v.1.15,2013-05-16 00:55:00,
2013-05-15 20:00:00,68.9,64.5,29.70,SE,140,13.0,13.0,86,0.00,,,0.02,Wunderground v.1.15,2013-05-16 01:00:00,
2013-05-15 20:10:00,68.9,64.5,29.68,SE,144,12.0,12.0,86,0.00,,,0.02,Wunderground v.1.15,2013-05-16 01:10:00,
2013-05-15 20:15:00,68.9,64.5,29.68,SSE,153,12.0,12.0,86,0.00,,,0.02,Wunderground v.1.15,2013-05-16 01:15:00,
2013-05-15 20:20:00,68.9,64.5,29.67,SE,140,13.0,13.0,86,0.00,,,0.02,Wunderground v.1.15,2013-05-16 01:20:00,
2013-05-15 20:25:00,68.9,64.5,29.67,SE,144,14.0,14.0,86,0.00,,,0.02,Wunderground v.1.15,2013-05-16 01:25:00,
2013-05-15 20:30:00,69.0,64.6,29.67,SE,146,14.0,14.0,86,0.00,,,0.02,Wunderground v.1.15,2013-05-16 01:30:00,
2013-05-15 20:40:00,69.1,64.7,29.67,ESE,117,14.0,14.0,86,0.00,,,0.02,Wunderground v.1.15,2013-05-16 01:40:00,
2013-05-15 20:50:00,69.2,64.8,29.68,SE,134,13.0,13.0,86,0.00,,,0.02,Wunderground v.1.15,2013-05-16 01:50:00,
2013-05-15 20:55:00,69.3,64.9,29.69,South,174,13.0,13.0,86,0.00,,,0.02,Wunderground v.1.15,2013-05-16 01:55:00,
2013-05-15 21:00:00,69.3,64.9,29.70,SE,134,10.0,10.0,86,0.00,,,0.02,Wunderground v.1.15,2013-05-16 02:00:00,
2013-05-15 21:10:00,69.5,65.1,29.73,South,186,10.0,10.0,86,0.00,,,0.02,Wunderground v.1.15,2013-05-16 02:10:00,
2013-05-15 21:20:00,66.4,61.4,29.77,WNW,296,12.0,14.0,84,3.67,,,0.27,Wunderground v.1.15,2013-05-16 02:20:00,
2013-05-15 21:25:00,64.4,59.8,29.75,NW,315,12.0,14.0,85,1.76,,,0.40,Wunderground v.1.15,2013-05-16 02:25:00,
2013-05-15 21:30:00,63.9,59.6,29.76,WNW,283,11.0,11.0,86,0.31,,,0.49,Wunderground v.1.15,2013-05-16 02:30:00,
2013-05-15 21:35:00,64.1,59.8,29.75,NNW,348,9.0,11.0,86,0.09,,,0.49,Wunderground v.1.15,2013-05-16 02:35:00,
2013-05-15 21:45:00,64.1,59.8,29.76,North,9,5.0,8.0,86,0.21,,,0.52,Wunderground v.1.15,2013-05-16 02:45:00,
2013-05-15 21:50:00,64.0,59.7,29.77,North,9,2.0,2.0,86,0.08,,,0.52,Wunderground v.1.15,2013-05-16 02:50:00,
2013-05-15 21:55:00,64.0,59.7,29.78,East,80,2.0,3.0,86,0.06,,,0.53,Wunderground v.1.15,2013-05-16 02:55:00,
2013-05-15 22:00:00,63.9,59.3,29.80,East,96,2.0,3.0,85,0.10,,,0.54,Wunderground v.1.15,2013-05-16 03:00:00,
2013-05-15 22:10:00,63.8,59.2,29.79,SW,227,1.0,1.0,85,0.42,,,0.64,Wunderground v.1.15,2013-05-16 03:10:00,
2013-05-15 22:15:00,63.8,59.2,29.78,South,178,3.0,4.0,85,0.31,,,0.66,Wunderground v.1.15,2013-05-16 03:15:00,
2013-05-15 22:20:00,63.8,59.2,29.77,SSE,162,5.0,6.0,85,1.29,,,0.71,Wunderground v.1.15,2013-05-16 03:20:00,
2013-05-15 22:30:00,63.2,58.6,29.74,South,182,9.0,9.0,85,0.15,,,0.78,Wunderground v.1.15,2013-05-16 03:30:00,
2013-05-15 22:35:00,63.1,58.2,29.75,South,174,8.0,9.0,84,0.08,,,0.79,Wunderground v.1.15,2013-05-16 03:35:00,
2013-05-15 22:45:00,63.4,58.1,29.76,SSW,192,8.0,12.0,83,0.09,,,0.80,Wunderground v.1.15,2013-05-16 03:45:00,
2013-05-15 22:50:00,63.3,58.4,29.77,SSW,202,8.0,8.0,84,0.12,,,0.81,Wunderground v.1.15,2013-05-16 03:50:00,
2013-05-15 23:00:00,63.0,58.1,29.77,SSE,153,5.0,5.0,84,0.07,,,0.82,Wunderground v.1.15,2013-05-16 04:00:00,
2013-05-15 23:05:00,63.0,58.1,29.79,SSE,156,4.0,5.0,84,0.07,,,0.83,Wunderground v.1.15,2013-05-16 04:05:00,
2013-05-15 23:10:00,63.0,58.1,29.79,SSW,196,3.0,3.0,84,0.07,,,0.83,Wunderground v.1.15,2013-05-16 04:10:00,
2013-05-15 23:15:00,63.0,58.4,29.80,South,173,4.0,4.0,85,0.05,,,0.83,Wunderground v.1.15,2013-05-16 04:15:00,
2013-05-15 23:20:00,63.0,58.4,29.80,South,173,3.0,3.0,85,0.04,,,0.84,Wunderground v.1.15,2013-05-16 04:20:00,
2013-05-15 23:25:00,63.0,58.4,29.79,SSE,167,3.0,4.0,85,0.04,,,0.84,Wunderground v.1.15,2013-05-16 04:25:00,
2013-05-15 23:30:00,63.0,58.4,29.79,SSE,155,4.0,6.0,85,0.06,,,0.85,Wunderground v.1.15,2013-05-16 04:30:00,
2013-05-15 23:40:00,63.2,58.3,29.76,ESE,116,5.0,5.0,84,0.09,,,0.86,Wunderground v.1.15,2013-05-16 04:40:00,
2013-05-15 23:45:00,63.4,58.1,29.75,SE,126,6.0,7.0,83,0.06,,,0.87,Wunderground v.1.15,2013-05-16 04:45:00,
2013-05-15 23:50:00,63.5,58.6,29.75,SE,136,7.0,7.0,84,0.06,,,0.87,Wunderground v.1.15,2013-05-16 04:50:00,
2013-05-15 23:55:00,63.7,58.4,29.73,ESE,115,8.0,10.0,83,0.09,,,0.88,Wunderground v.1.15,2013-05-16 04:55:00,